This is the latest recevied weather packets stored in our database for station/object G7GQA-4. If no packets are shown the sender has not sent any weather packets the latest 10 day(s).
| Time | Temp. | Humidity | Pressure | Rain* | Wind** | Luminosity | Snow |
|---|---|---|---|---|---|---|---|
| 1778231129 | 13.33° C | 72% | - | 0 mm | - | 517 W/m² | - |
| 1778230528 | 12.78° C | 75% | - | 0 mm | - | 603 W/m² | - |
| 1778229929 | 12.22° C | 79% | - | 0 mm | - | 343 W/m² | - |
| 1778229329 | 11.67° C | 80% | - | 0 mm | - | 186 W/m² | - |
| 1778228728 | 11.67° C | 81% | - | 0 mm | - | 181 W/m² | - |
| 1778228128 | 11.11° C | 82% | - | 0 mm | - | 142 W/m² | - |
| 1778227528 | 10.56° C | 83% | - | 0 mm | - | 99 W/m² | - |
| 1778226928 | 10.56° C | 83% | - | 0 mm | - | 63 W/m² | - |
| 1778226328 | 10.56° C | 83% | - | 0 mm | - | 63 W/m² | - |
| 1778225728 | 10.56° C | 83% | - | 0 mm | - | 56 W/m² | - |
| 1778225128 | 10.56° C | 83% | - | 0 mm | - | 56 W/m² | - |
| 1778224528 | 10.56° C | 82% | - | 0 mm | - | 52 W/m² | - |
| 1778223928 | 10.56° C | 82% | - | 0 mm | - | 68 W/m² | - |
| 1778223328 | 10.56° C | 82% | - | 0 mm | - | 95 W/m² | - |
| 1778222728 | 10.56° C | 82% | - | 0 mm | - | 125 W/m² | - |
| 1778222128 | 10° C | 83% | - | 0 mm | - | 121 W/m² | - |
| 1778221528 | 10° C | 83% | - | 0 mm | - | 108 W/m² | - |
| 1778220929 | 9.44° C | 83% | - | 0 mm | - | 117 W/m² | - |
| 1778220328 | 9.44° C | 84% | - | 0 mm | - | 85 W/m² | - |
| 1778219728 | 9.44° C | 83% | - | 0 mm | - | 72 W/m² | - |
| 1778219128 | 9.44° C | 82% | - | 0 mm | - | 73 W/m² | - |
| 1778218528 | 8.89° C | 84% | - | 0 mm | - | 50 W/m² | - |
| 1778217928 | 8.33° C | 86% | - | 0 mm | - | 38 W/m² | - |
| 1778217328 | 8.33° C | 86% | - | 0 mm | - | 31 W/m² | - |
| 1778216728 | 8.33° C | 86% | - | 0 mm | - | 19 W/m² | - |
* Rain latest hour (hover to see other rain measurements)
** Current wind speed in m/s (hover to see current wind gust speed)